Regional Weather Roundup
Issued by NWS Little Rock, AR

Home | Current Version | Previous Version | Text Only | Print | Product List | Glossary On
Versions: 1 2 3 4 5 6 7 8 9 10 11 12 13 14 15 16 17 18 19 20 21 22 23 24 25 26 27 28 29 30 31 32 33 34 35 36 37 38 39 40 41 42 43 44 45 46 47 48 49
000
ASUS44 KLZK 030305
RWRLZK

WEATHER ROUNDUP FOR ARKANSAS
NATIONAL WEATHER SERVICE LITTLE ROCK AR
1000 PM CDT WED SEP 02 2015

NOTE: "FAIR" INDICATES FEW OR NO CLOUDS BELOW 12,000 FEET WITH NO
SIGNIFICANT WEATHER AND/OR OBSTRUCTIONS TO VISIBILITY.

ARZ001-003-010-029-030400-
NORTHWEST ARKANSAS

CITY           SKY/WX    TMP DP  RH WIND       PRES   REMARKS
FAYETTEVILLE   CLEAR     70  70 100 CALM      30.03R
FORT SMITH     CLEAR     80  65  59 CALM      29.97R
HARRISON       CLEAR     73  65  75 S6        30.05R
BENTONVILLE    CLEAR     75  64  69 SE3       30.04R
ROGERS         CLEAR     74  68  81 CALM      30.04R
SILOAM SPGS    CLEAR     75  64  69 SE7       30.01S
HIGHFILL       CLEAR     74  68  81 CALM      30.03R
$$

ARZ004-005-016-030400-
NORTH CENTRAL ARKANSAS

CITY           SKY/WX    TMP DP  RH WIND       PRES   REMARKS
BATESVILLE     CLEAR     75  70  83 CALM      30.01R
FLIPPIN        CLEAR     81  64  57 SW3       30.01R
MTN HOME       CLEAR     76  69  79 S3        30.02R
$$

ARZ040-041-030400-
WEST CENTRAL ARKANSAS

CITY           SKY/WX    TMP DP  RH WIND       PRES   REMARKS
MENA           CLEAR     73  68  83 CALM      30.03R
MOUNT IDA      CLEAR     74  68  81 CALM      30.00R
$$

ARZ009-017-025-026-028-030400-
NORTHEAST ARKANSAS

CITY           SKY/WX    TMP DP  RH WIND       PRES   REMARKS
JONESBORO      CLEAR     73  71  93 CALM      30.00R
NEWPORT        CLEAR     78  72  82 SE6       30.01R
WALNUT RIDGE   CLEAR     77  70  78 CALM      30.00R
BLYTHEVILLE    CLEAR     78  73  84 SW5       30.01R
$$

ARZ022-023-033-042-044-030400-
CENTRAL ARKANSAS

CITY           SKY/WX    TMP DP  RH WIND       PRES   REMARKS
N LITTLE ROCK  CLEAR     76  73  91 SW5       30.00R
JACKSONVILLE   CLEAR     73  72  94 CALM      30.00R
SEARCY         CLEAR     75  72  90 CALM      30.02R
HOT SPRINGS    CLEAR     78  68  71 CALM      30.02R
RUSSELLVILLE   CLEAR     75  69  81 CALM      30.00R
$$

ARZ036-030400-
EAST ARKANSAS

CITY           SKY/WX    TMP DP  RH WIND       PRES   REMARKS
WEST MEMPHIS   CLEAR     74  74 100 CALM      30.00R
$$

ARZ050-053-066-070-073-030400-
SOUTHWEST ARKANSAS

CITY           SKY/WX    TMP DP  RH WIND       PRES   REMARKS
ARKADELPHIA    FAIR      72  71  96 CALM      30.00S
CAMDEN         CLEAR     72  68  88 CALM      30.00S FOG
TEXARKANA      CLEAR     79  68  69 SE3       29.98S
EL DORADO      FAIR      73  69  87 CALM      29.99S
DE QUEEN       FAIR      76  70  82 E5        29.97R
$$

ARZ056-057-069-030400-
SOUTHEAST ARKANSAS

CITY           SKY/WX    TMP DP  RH WIND       PRES   REMARKS
PINE BLUFF     CLEAR     73  71  93 CALM      30.00R
STUTTGART      CLEAR     79  68  69 CALM      30.00S
MONTICELLO     CLEAR     73  72  96 CALM      30.00R

$$




USA.gov is the U.S. government's official web portal to all federal, state and local government web resources and services.